www.pogodaiklimat.ru

Погода и климат >> Архив погоды >> Австралия >> Южная Австралия >> Сидуна


ПОГОДА в Сидуне

  • Прогноз погоды в Сидуне
  • Монитор погоды в Сидуне

АРХИВ ПОГОДЫ в Сидуне

Время (UTC), дата Ветер
(напр.,м/с)
 
Видим.   Явления Облачность Т
(С)
Тd
(С)
f
(%)
Тe
(С)
Тes
(С)
Комфортность P
(гПа)
Po
(гПа)
Тmin
(С)
Tmax
(С)
R
(мм)
R24
(мм)
S
(см)
22 19.03 В 1 н/о 5/5 300 м
[]
+14.4 +13.8 96 +15 +15 1016.8 1015.0
23 19.03 ЮВ 5 н/о н/о +19.0 +15.9 82 +20 +20 1017.0 1015.2
00 20.03 ЮВ 5 н/о н/о +21.3 +15.4 69 +24 +24 комфорт 1017.3 1015.5
01 20.03 Ю 5 н/о н/о +22.2 +15.8 67 +26 +26 душно 1017.7 1015.9 +12.5
02 20.03 Ю 5 н/о н/о +23.0 +16.3 66 +28 +28 душно 1017.4 1015.6
03 20.03 ЮЗ 7 н/о н/о +21.4 +15.0 67 +25 +25 комфорт 1017.0 1015.2
04 20.03 Ю 6 н/о н/о +22.6 +15.2 63 +26 +26 жарко 1016.3 1014.5
05 20.03 ЮЗ 8 н/о н/о +22.4 +15.7 66 +26 +26 жарко 1015.8 1014.0
06 20.03 Ю 7 н/о н/о +22.6 +15.2 63 +26 +26 жарко 1015.5 1013.7
07 20.03 Ю 8 н/о н/о +21.2 +15.1 68 +24 +24 комфорт 1015.6 1013.8
08 20.03 Ю 8 н/о н/о +20.7 +15.3 71 +23 +23 комфорт 1015.7 1013.9
09 20.03 Ю 7 н/о н/о +19.8 +15.2 75 +21 +21 комфорт 1016.1 1014.3
10 20.03 Ю 5 н/о н/о +19.1 +15.6 80 +20 +20 1016.1 1014.3
11 20.03 Ю 5 н/о н/о +18.9 +14.6 76 +20 +20 1016.6 1014.8
12 20.03 Ю 5 н/о н/о +18.5 +14.8 79 +19 +19 1017.2 1015.4
13 20.03 Ю 4 н/о н/о +17.9 +15.0 83 +18 +18 1017.2 1015.4 +24.1
14 20.03 Ю 3 н/о н/о +16.2 +14.6 90 +16 +16 1016.7 1014.9
15 20.03 Ю 4 н/о н/о +16.9 +15.4 91 +16 +16 1016.3 1014.5
16 20.03 ЮВ 4 н/о н/о +16.5 +15.2 92 +16 +16 1014.9 1013.1
17 20.03 ЮВ 3 н/о н/о +16.4 +15.1 92 +16 +16 1015.0 1013.2
18 20.03 ЮВ 5 н/о н/о +17.2 +15.9 92 +17 +17 1014.8 1013.0
19 20.03 ЮВ 5 н/о 6/6 300 м
[]
+17.5 +16.0 91 +17 +17 1015.0 1013.2
20 20.03 ЮВ 2 н/о н/о +16.9 +15.6 92 +17 +17 1015.2 1013.4
21 20.03 В 4 н/о н/о +16.8 +15.3 91 +16 +16 1016.0 1014.2
22 20.03 В 2 н/о 5/5 300 м
[]
+17.1 +15.8 92 +18 +18 1016.9 1015.1
23 20.03 ЮВ 5 н/о н/о +19.0 +16.0 83 +20 +20 1017.2 1015.4
00 21.03 ЮВ 5 н/о н/о +20.1 +16.3 79 +23 +23 комфорт 1017.6 1015.8
01 21.03 ЮВ 6 н/о 10/10 300 м
[]
+21.4 +16.1 72 +25 +25 комфорт 1017.3 1015.5 +15.8
02 21.03 Ю 6 н/о н/о +22.3 +16.8 71 +27 +27 душно 1017.2 1015.4
03 21.03 Ю 7 н/о н/о +22.9 +16.4 67 +28 +28 душно 1016.8 1015.0
04 21.03 Ю 8 н/о н/о +22.0 +14.9 64 +25 +25 комфорт 1016.0 1014.2
05 21.03 Ю 8 н/о н/о +22.2 +15.1 64 +26 +26 душно 1015.4 1013.6
06 21.03 Ю 8 н/о н/о +21.8 +14.4 63 +25 +25 комфорт 1014.6 1012.8
07 21.03 Ю 8 н/о н/о +21.5 +15.6 69 +25 +25 комфорт 1014.6 1012.8
08 21.03 Ю 9 н/о н/о +20.0 +15.0 73 +22 +22 комфорт 1014.6 1012.8
09 21.03 Ю 8 н/о н/о +19.4 +15.3 77 +20 +20 1014.3 1012.5
10 21.03 Ю 7 н/о 5/0
[]
+18.9 +15.6 81 +20 +20 1014.5 1012.7
11 21.03 Ю 5 н/о н/о +18.8 +16.0 84 +20 +20 1014.9 1013.1
12 21.03 ЮВ 5 н/о н/о +18.8 +15.9 83 +20 +20 1014.6 1012.8
13 21.03 ЮВ 3 н/о 3/0
[]
+17.4 +14.9 85 +18 +18 1014.6 1012.8 +24.0
14 21.03 ЮВ 2 н/о н/о +17.4 +15.0 86 +18 +18 1014.1 1012.3
15 21.03 штиль 0 н/о н/о +15.7 +13.9 89 +15 +15 1013.6 1011.8
16 21.03 штиль 0 н/о 9/0
[]
+14.4 +12.6 89 +14 +14 1013.2 1011.4
17 21.03 ЮВ 3 н/о н/о +14.3 +12.9 91 +13 +13 1012.5 1010.7
18 21.03 ЮВ 3 н/о н/о +14.5 +13.2 92 +13 +13 1012.4 1010.6
22 21.03 ЮВ 2 н/о 3/0
[]
+15.4 +14.4 94 +15 +15 1013.2 1011.4
23 21.03 ЮВ 4 н/о н/о +17.9 +15.2 84 +18 +18 1013.2 1011.4
01 22.03 ЮВ 2 н/о 9/0
[]
+24.1 +15.3 58 +27 +27 жарко 1012.8 1011.0 +13.6
02 22.03 ЮЗ 4 н/о н/о +25.6 +16.7 58 +29 +29 душно 1012.0 1010.2
03 22.03 ЮЗ 6 н/о н/о +23.9 +17.6 68 +28 +28 душно 1011.1 1009.3
04 22.03 ЮЗ 6 н/о 5/0
[]
+25.1 +16.3 58 +28 +28 жарко 1010.6 1008.8
05 22.03 Ю 6 н/о н/о +24.2 +15.9 60 +27 +27 жарко 1009.9 1008.1
06 22.03 Ю 6 н/о н/о +21.1 +16.9 77 +25 +25 комфорт 1010.2 1008.4
07 22.03 ЮВ 4 н/о 10/10 1000 м
[]
+21.9 +17.5 76 +26 +26 душно 1009.8 1008.0
08 22.03 ЮВ 4 н/о н/о +22.8 +17.0 70 +28 +28 душно 1009.2 1007.4
09 22.03 Ю 6 н/о н/о +20.8 +17.8 83 +25 +25 комфорт 1010.5 1008.7
10 22.03 Ю 4 н/о 10/0
[]
+20.1 +17.5 85 +23 +23 комфорт 1011.0 1009.2
11 22.03 Ю 2 н/о н/о +20.0 +17.2 84 +23 +23 комфорт 1011.7 1009.9
12 22.03 Ю 3 н/о н/о +20.0 +17.8 87 +23 +23 комфорт 1012.1 1010.3
13 22.03 В 2 н/о 10/0
[]
+19.6 +17.6 88 +23 +23 комфорт 1010.9 1009.1 +26.9
14 22.03 В 2 н/о н/о +19.6 +17.4 87 +23 +23 комфорт 1010.0 1008.2
15 22.03 СВ 2 н/о н/о +19.7 +16.9 84 +23 +23 комфорт 1009.5 1007.7
16 22.03 штиль 0 н/о 10/0
[]
+19.8 +16.8 83 +22 +22 комфорт 1009.6 1007.8
17 22.03 С 3 н/о н/о +20.0 +16.4 80 +23 +23 комфорт 1009.6 1007.8
18 22.03 ЮЗ 4 н/о н/о +20.2 +18.0 87 +24 +24 комфорт 1009.6 1007.8
19 22.03 Ю 2 н/о 10/0
[]
+19.7 +18.2 91 +23 +23 комфорт 1009.6 1007.8
20 22.03 Ю 2 н/о н/о +19.5 +18.2 92 +23 +23 комфорт 1010.9 1009.1
21 22.03 Ю 3 н/о н/о +19.2 +18.0 93 +21 +21 комфорт 1011.1 1009.3
22 22.03 штиль 0 н/о 10/0
[]
+19.1 +17.9 93 +21 +21 комфорт 1012.1 1010.3
23 22.03 Ю 3 н/о н/о +20.1 +17.9 87 +23 +23 комфорт 1012.2 1010.4
00 23.03 ЮВ 3 н/о н/о +20.4 +17.6 84 +24 +24 комфорт 1012.9 1011.1
01 23.03 Ю 4 н/о 8/0
[]
+22.1 +18.1 78 +27 +27 душно 1013.3 1011.5 +19.1
02 23.03 Ю 5 н/о н/о +21.6 +16.8 74 +26 +26 душно 1012.7 1010.9
03 23.03 Ю 5 н/о н/о +21.4 +17.0 76 +25 +25 комфорт 1012.3 1010.5
04 23.03 ЮЗ 5 н/о 8/8 1000 м
[]
+20.4 +17.2 82 +24 +24 комфорт 1012.6 1010.8
05 23.03 Ю 5 н/о н/о +20.8 +17.2 80 +25 +25 комфорт 1012.1 1010.3
06 23.03 Ю 6 н/о н/о +20.6 +16.6 78 +24 +24 комфорт 1012.0 1010.2
07 23.03 Ю 6 н/о 9/0
[]
+20.4 +17.0 81 +23 +23 комфорт 1012.8 1011.0
08 23.03 Ю 5 н/о н/о +20.2 +16.8 81 +23 +23 комфорт 1013.4 1011.6
09 23.03 Ю 3 н/о н/о +19.8 +16.8 83 +23 +23 комфорт 1013.5 1011.7
10 23.03 СВ 2 н/о 4/0
[]
+19.3 +16.5 84 +22 +22 комфорт 1013.0 1011.2
11 23.03 Ю 4 н/о н/о +19.3 +17.3 88 +21 +21 комфорт 1013.3 1011.5
12 23.03 Ю 5 н/о н/о +19.0 +17.1 89 +20 +20 1013.6 1011.8
13 23.03 Ю 4 н/о н/о +18.8 +16.9 89 +20 +20 1013.5 1011.7 +23.5
14 23.03 Ю 3 н/о н/о +18.6 +16.6 88 +20 +20 1012.7 1010.9
15 23.03 Ю 3 н/о н/о +18.0 +16.5 91 +18 +18 1011.8 1010.0
16 23.03 Ю 3 н/о 10/10 200 м
[]
+18.2 +16.9 92 +19 +19 1011.4 1009.6
17 23.03 Ю 4 н/о н/о +19.0 +17.8 93 +21 +21 комфорт 1011.0 1009.2
18 23.03 В 2 н/о н/о +18.4 +17.2 93 +20 +20 1011.1 1009.3
19 23.03 штиль 0 н/о 10/10 300 м
[]
+17.8 +16.5 92 +18 +18 1011.3 1009.5
20 23.03 С 2 н/о н/о +17.7 +16.4 92 +18 +18 1011.1 1009.3
21 23.03 штиль 0 н/о н/о +17.7 +16.6 93 +18 +18 1011.6 1009.8
22 23.03 С 2 н/о 8/8 600 м
[]
+18.3 +17.0 92 +20 +20 1011.8 1010.0
23 23.03 СЗ 3 н/о н/о +20.0 +17.6 86 +23 +23 комфорт 1012.4 1010.6
00 24.03 З 4 н/о н/о +20.6 +18.0 85 +25 +25 комфорт 1012.1 1010.3
01 24.03 ЮЗ 5 н/о 1/1 300 м
[]
+21.7 +17.5 77 +26 +26 душно 1012.5 1010.7 +16.9
02 24.03 ЮЗ 6 н/о н/о +22.0 +16.9 73 +26 +26 душно 1012.3 1010.5
03 24.03 ЮЗ 6 н/о н/о +22.8 +17.5 72 +28 +28 душно 1011.7 1009.9
04 24.03 ЮЗ 7 н/о 10/10 1000 м
[]
+23.1 +16.9 68 +28 +28 душно 1010.9 1009.1
05 24.03 ЮЗ 10 н/о н/о +22.7 +16.0 66 +27 +27 душно 1010.2 1008.4
06 24.03 З 8 н/о н/о +22.0 +14.9 64 +25 +25 комфорт 1010.6 1008.8
07 24.03 З 9 н/о 5/0 2000 м
[]
+21.6 +16.3 72 +25 +25 комфорт 1011.0 1009.2
08 24.03 ЮЗ 10 н/о н/о +20.4 +16.2 77 +23 +23 комфорт 1011.1 1009.3
09 24.03 З 8 н/о н/о +20.2 +16.0 77 +22 +22 комфорт 1011.7 1009.9
10 24.03 З 6 н/о 6/6 1500 м
[]
+19.9 +15.5 76 +22 +22 комфорт 1012.2 1010.4
11 24.03 З 8 н/о н/о +19.9 +14.7 72 +21 +21 комфорт 1012.8 1011.0
12 24.03 З 7 н/о н/о +19.7 +14.9 74 +21 +21 комфорт 1013.2 1011.4
13 24.03 ЮЗ 9 н/о 10/10 600 м
[]
+18.9 +14.8 77 +19 +19 1013.4 1011.6 +24.2
14 24.03 ЮЗ 9 н/о н/о +18.7 +13.6 72 +19 +19 1013.4 1011.6
15 24.03 ЮЗ 9 н/о н/о +18.6 +11.4 63 +18 +18 1013.8 1012.0
16 24.03 ЮЗ 8 н/о 5/5 1000 м
[]
+17.9 +11.2 65 +17 +17 1013.9 1012.1
17 24.03 ЮЗ 8 н/о н/о +18.1 +11.2 64 +17 +17 1014.0 1012.2
18 24.03 ЮЗ 8 н/о н/о +18.0 +11.3 65 +17 +17 1014.3 1012.5
19 24.03 ЮЗ 8 н/о 8/8 1500 м
[]
+18.0 +9.1 56 +17 +17 1014.8 1013.0
20 24.03 ЮЗ 7 н/о н/о +17.2 +9.4 60 +16 +16 1015.6 1013.8
21 24.03 ЮЗ 6 н/о н/о +17.3 +10.0 62 +16 +16 1016.5 1014.7
22 24.03 ЮЗ 8 н/о 10/10 1500 м
[]
+17.5 +9.7 60 +16 +16 1017.2 1015.4
23 24.03 ЮЗ 7 н/о н/о +18.4 +8.7 53 +18 +18 1018.1 1016.2
00 25.03 Ю 7 н/о н/о +18.5 +10.8 61 +18 +18 1019.0 1017.1
01 25.03 ЮЗ 6 н/о 9/9 1500 м
[]
+19.0 +8.9 52 +19 +19 1019.4 1017.5 +17.2
02 25.03 ЮЗ 7 н/о н/о +20.4 +8.7 47 +21 +21 комфорт 1019.2 1017.3
03 25.03 Ю 8 н/о н/о +20.0 +9.6 51 +21 +21 комфорт 1019.2 1017.3
04 25.03 ЮЗ 9 н/о 5/5 1000 м
[]
+20.3 +9.5 50 +21 +21 комфорт 1019.0 1017.1
05 25.03 ЮЗ 8 н/о н/о +20.7 +10.8 53 +22 +22 комфорт 1018.6 1016.7
06 25.03 ЮЗ 7 н/о н/о +18.9 +11.0 60 +19 +19 1018.9 1017.0
07 25.03 ЮЗ 7 н/о 8/8 600 м
[]
+19.5 +12.3 63 +20 +20 1019.1 1017.2
08 25.03 Ю 6 н/о н/о +18.3 +11.8 66 +18 +18 1019.8 1017.9
09 25.03 Ю 4 н/о н/о +17.4 +12.5 73 +17 +17 1020.5 1018.6
10 25.03 ЮЗ 6 н/о туман местами 10/10 300 м
[]
+17.0 +11.7 71 +16 +16 1021.2 1019.3
11 25.03 Ю 4 н/о н/о +15.8 +13.3 85 +15 +15 1022.1 1020.2
12 25.03 Ю 4 н/о н/о +14.9 +11.7 81 +14 +14 1022.4 1020.5
13 25.03 Ю 3 н/о 9/9 600 м
[]
+15.2 +11.4 78 +14 +14 1022.5 1020.6 +21.6
14 25.03 Ю 3 н/о н/о +15.6 +12.2 80 +15 +15 1022.2 1020.3
15 25.03 Ю 3 н/о н/о +16.0 +11.2 73 +16 +16 1022.0 1020.1
16 25.03 Ю 3 н/о 9/9 1000 м
[]
+16.0 +11.6 75 +16 +16 1022.0 1020.1
17 25.03 В 2 н/о н/о +14.8 +11.2 79 +14 +14 1022.4 1020.5
18 25.03 СВ 3 н/о н/о +13.9 +11.1 83 +13 +13 1022.5 1020.6
19 25.03 СВ 1 н/о 10/10 1000 м
[]
+13.9 +11.2 84 +14 +14 1022.8 1020.9
20 25.03 СВ 2 н/о н/о +13.8 +11.1 84 +14 +14 1023.0 1021.1
21 25.03 штиль 0 н/о н/о +14.1 +11.4 84 +14 +14 1023.7 1021.8
22 25.03 С 2 н/о 10/10 1000 м
[]
+14.5 +11.5 82 +14 +14 1024.4 1022.5
23 25.03 С 2 н/о н/о +15.8 +11.0 73 +16 +16 1025.0 1023.1
00 26.03 ЮВ 4 н/о н/о +17.9 +11.0 64 +18 +18 1025.3 1023.4
01 26.03 ЮВ 4 н/о 10/10 1000 м
[]
+18.2 +10.3 60 +18 +18 1025.2 1023.3 +13.6
02 26.03 Ю 5 н/о н/о +18.7 +10.8 60 +19 +19 1024.9 1023.0
03 26.03 Ю 5 н/о н/о +19.6 +9.8 53 +21 +21 комфорт 1024.5 1022.6
04 26.03 ЮЗ 6 н/о 10/10 1000 м
[]
+19.6 +10.3 55 +20 +20 1023.8 1021.9
05 26.03 Ю 7 н/о н/о +20.6 +10.4 52 +22 +22 комфорт 1023.2 1021.3
06 26.03 ЮЗ 7 н/о н/о +19.9 +10.9 56 +21 +21 комфорт 1022.9 1021.0
07 26.03 ЮЗ 7 н/о н/о +19.7 +11.5 59 +21 +21 комфорт 1022.7 1020.8
08 26.03 Ю 6 н/о н/о +18.7 +12.5 67 +19 +19 1023.0 1021.1
09 26.03 Ю 6 н/о н/о +17.4 +11.4 68 +17 +17 1023.3 1021.4
10 26.03 Ю 5 н/о н/о +16.6 +12.2 75 +16 +16 1023.4 1021.5
11 26.03 Ю 5 н/о н/о +16.5 +12.3 76 +16 +16 1023.8 1021.9
12 26.03 ЮВ 5 н/о н/о +15.9 +12.3 79 +15 +15 1024.1 1022.2
13 26.03 ЮВ 4 н/о н/о +15.3 +12.4 83 +14 +14 1023.8 1021.9 +21.4
14 26.03 ЮВ 4 н/о н/о +14.1 +12.0 87 +13 +13 1023.6 1021.7
15 26.03 ЮВ 3 н/о н/о +12.1 +10.3 89 +11 +11 1023.3 1021.4
16 26.03 В 3 н/о н/о +10.0 +8.8 92 +8 +8 1022.8 1020.9
17 26.03 ЮВ 3 н/о н/о +9.7 +8.8 94 +8 +8 1022.5 1020.6
18 26.03 ЮВ 4 н/о н/о +11.8 +10.9 94 +10 +10 1022.1 1020.2

 

Местоположение метеостанции Сидуна (Южная Австралия, Австралия): широта -32.13 долгота 133.70 высота над уровнем моря 16 м.

В архиве по умолчанию представлена погода в Сидуне за последнюю неделю. Архивные данные за месяц целиком и за предыдущие месяцы, начиная с января 2011 года, Вы можете получить, выбрав интересующий диапазон дат из раскрывающегося списка и нажав кнопку "Ввод!".


*Определитесь, кто Вы:
робот инопланетянин человек

Внимание! Время в таблицах - всемирное. Для получения местного времени необходимо прибавить поправку, которая равна 9.5 ч.

Смотрите также архив погоды в соседних городах и на ближайших метеорологических станциях:

Погода в Миннипа Пирса (Южная Австралия, Австралия) (158 км)
Погода в Таркуле (Южная Австралия, Австралия) (178 км)
Погода в Уудинне (Южная Австралия, Австралия) (193 км)
Погода в Наллаборе (Южная Австралия, Австралия) (275 км)
Погода в Колте (Южная Австралия, Австралия) (295 км)
Погода в Камминсе (Южная Австралия, Австралия) (302 км)
Погода на Аэродроме Вумера (Южная Австралия, Австралия) (314 км)
Погода в Кливе (Южная Австралия, Австралия) (316 км)
Погода в Порт-Линкольне (Южная Австралия, Австралия) (341 км)
Погода в Олимпик Дэм (Южная Австралия, Австралия) (354 км)

Пояснения к столбцам:

Ветер - указаны скорость ветра в м/с - средняя за 10 мин, порывы в срок и между сроками (в фигурных скобках) и направление, откуда дует ветер: С - северный, СВ - северо-восточный, В - восточный, ЮВ - юго-восточный, Ю - южный, ЮЗ - юго-западный, З - западный, СЗ - северо-западный.
Видимость - горизонтальная дальность видимости в метрах или километрах. При видимости от 1 до 10 км при отсутствии осадков обычно наблюдается дымка, при ухудшении видимости до 1 км и менее - туман. В сухую погоду видимость может ухудшаться дымом, пылью или мглою.
Явления - указаны атмосферные явления, наблюдавшиеся в срок или в последний час перед сроком; фигурными скобками обозначены явления, наблюдавшиеся между сроками (за 1-3 часа до срока); квадратными скобками обозначены град или гололедные отложения с указанием их диаметра в мм.
Облачность - указаны через наклонную черту общая и нижняя облачность в баллах и высота нижней границы облаков в метрах; квадратными скобками обозначены формы облаков: Ci - перистые, Cs - перисто-слоистые, Cc - перисто-кучевые, Ac - высококучевые, As - высокослоистые, Sc - слоисто-кучевые, Ns - слоисто-дождевые, Cu - кучевые, Cb - кучево-дождевые. Подробнее классификацию облаков см. в Атласе облаков (PDF).
T - Температура воздуха - температура, измеренная на высоте 2 м над землей.
Td - Температура точки росы - температура, при понижении до которой содержащийся в воздухе водяной пар достигнет насыщения.
f - Относительная влажность воздуха - влажноcть воздуха, измеренная на высоте 2 м над землей.
Te - Эффективная температура - температура, которую ощущает одетый по сезону человек в тени. Характеристика душности погоды. При расчете учитывается влияние влажности воздуха и скорости ветра на теплоощущения человека.
Tes - Эффективная температура на солнце - температура, которую ощущает человек, с поправкой на солнечный нагрев. Характеристика знойности погоды. Зависит от высоты солнца над горизонтом, облачности и скорости ветра. Ночью, в пасмурную погоду, а также при ветре 12 м/с и более поправка равна нулю.
P - Атмосферное давление - приведенное к уровню моря атмосферное давление.
Po - Атмосферное давление - измеренное на уровне метеостанции атмосферное давление.
Tmin - Минимальная температура - минимум температуры воздуха на высоте 2 м над землей.
Tmax - Максимальная температура - максимум температуры воздуха на высоте 2 м над землей.
R - Количество осадков - Количество выпавших осадков за период времени, мм. При наведении курсора мыши на число - период времени, за который выпало указанное количество осадков.
R24 - Количество осадков - Количество выпавших осадков за 24 часа, мм.
S - Снежный покров - Высота снежного покрова, см. При наведении курсора мыши на число - состояние снежного покрова и степень покрытия местности в баллах.